Wetterdaten: aktuell Dienstag, 01.09.2026 16:32
Datum Zeit Temp. A. Feuchte A. Luftdruck Regen Wind Richtung Richtung Taupunkt Windchill
01.09.2026 16:32 25,9 °C 25 % 1011,8 hPa 0,0 l/m² 11,6 km/h (2 Bft) S±67.5° 175 ° 4,4 °C 24,9 °C
01.09.2026 16:30 26,0 °C 25 % 1011,8 hPa 0,0 l/m² 10,6 km/h (2 Bft) SO±22.5° 145 ° 4,4 °C 25,2 °C
01.09.2026 16:28 26,0 °C 25 % 1011,8 hPa 0,0 l/m² 3,7 km/h (1 Bft) O±67.5° 95 ° 4,4 °C 26,0 °C
01.09.2026 16:26 26,0 °C 25 % 1011,8 hPa 0,0 l/m² 8,6 km/h (2 Bft) O-NO 70 ° 4,4 °C 25,5 °C
01.09.2026 16:24 26,0 °C 26 % 1011,8 hPa 0,0 l/m² 8,6 km/h (2 Bft) O-NO 70 ° 5,0 °C 25,5 °C
01.09.2026 16:23 26,0 °C 26 % 1011,8 hPa 0,0 l/m² 8,2 km/h (2 Bft) SO±22.5° 125 ° 5,0 °C 25,6 °C
01.09.2026 16:21 26,0 °C 27 % 1011,8 hPa 0,0 l/m² 13,3 km/h (3 Bft) SO±67.5° 140 ° 5,5 °C 24,7 °C
01.09.2026 16:19 25,9 °C 27 % 1011,8 hPa 0,0 l/m² 5,2 km/h (1 Bft) S-SO±22.5° 155 ° 5,5 °C 25,9 °C
01.09.2026 16:17 25,9 °C 27 % 1011,8 hPa 0,0 l/m² 5,2 km/h (1 Bft) S-SO±22.5° 155 ° 5,5 °C 25,9 °C
01.09.2026 16:15 25,9 °C 27 % 1011,8 hPa 0,0 l/m² 3,6 km/h (1 Bft) SO±22.5° 135 ° 5,5 °C 25,9 °C
01.09.2026 16:13 25,9 °C 26 % 1011,8 hPa 0,0 l/m² 5,0 km/h (1 Bft) O-SO 105 ° 4,9 °C 25,9 °C
01.09.2026 16:11 25,9 °C 26 % 1012,8 hPa 0,0 l/m² 5,0 km/h (1 Bft) O-SO 105 ° 4,9 °C 25,9 °C
01.09.2026 16:09 25,9 °C 26 % 1012,8 hPa 0,0 l/m² 8,3 km/h (2 Bft) S-SO±45° 150 ° 4,9 °C 25,5 °C
01.09.2026 16:07 26,0 °C 26 % 1012,8 hPa 0,0 l/m² 10,3 km/h (2 Bft) SO±22.5° 140 ° 5,0 °C 25,2 °C
01.09.2026 16:05 26,0 °C 26 % 1012,8 hPa 0,0 l/m² 12,1 km/h (2 Bft) SO±45° 130 ° 5,0 °C 24,9 °C
01.09.2026 16:03 26,0 °C 26 % 1012,8 hPa 0,0 l/m² 12,1 km/h (2 Bft) SO±45° 130 ° 5,0 °C 24,9 °C
01.09.2026 16:01 25,9 °C 27 % 1012,8 hPa 0,0 l/m² 8,3 km/h (2 Bft) SO±45° 140 ° 5,5 °C 25,5 °C
01.09.2026 15:59 25,9 °C 27 % 1012,8 hPa 0,0 l/m² 12,8 km/h (3 Bft) SO±67.5° 140 ° 5,5 °C 24,7 °C
01.09.2026 15:57 25,8 °C 26 % 1012,8 hPa 0,0 l/m² 9,7 km/h (2 Bft) O-SO±67.5° 110 ° 4,8 °C 25,1 °C
01.09.2026 15:55 25,8 °C 26 % 1012,8 hPa 0,0 l/m² 9,7 km/h (2 Bft) O-SO±67.5° 110 ° 4,8 °C 25,1 °C
01.09.2026 15:53 25,8 °C 26 % 1012,8 hPa 0,0 l/m² 13,8 km/h (3 Bft) SO±67.5° 140 ° 4,8 °C 24,4 °C
01.09.2026 15:50 25,7 °C 27 % 1012,8 hPa 0,0 l/m² 9,2 km/h (2 Bft) NO±22.5° 35 ° 5,3 °C 25,1 °C
01.09.2026 15:48 25,6 °C 26 % 1012,9 hPa 0,0 l/m² 9,2 km/h (2 Bft) NO±22.5° 35 ° 4,7 °C 25,0 °C
01.09.2026 15:46 25,6 °C 26 % 1012,9 hPa 0,0 l/m² 14,0 km/h (3 Bft) N-NW±22.5° 335 ° 4,7 °C 24,2 °C
01.09.2026 15:44 25,6 °C 25 % 1012,9 hPa 0,0 l/m² 11,1 km/h (2 Bft) N-NO 20 ° 4,1 °C 24,6 °C
01.09.2026 15:42 25,5 °C 27 % 1012,9 hPa 0,0 l/m² 11,6 km/h (2 Bft) N-NW±22.5° 345 ° 5,1 °C 24,4 °C
01.09.2026 15:40 25,5 °C 27 % 1012,9 hPa 0,0 l/m² 11,6 km/h (2 Bft) N-NW±22.5° 345 ° 5,1 °C 24,4 °C
01.09.2026 15:38 25,2 °C 28 % 1012,9 hPa 0,0 l/m² 1,5 km/h (1 Bft) NW±67.5° 320 ° 5,4 °C 25,2 °C
01.09.2026 15:37 25,2 °C 27 % 1012,9 hPa 0,0 l/m² 6,3 km/h (2 Bft) NW±22.5° 315 ° 4,9 °C 25,2 °C
01.09.2026 15:35 25,4 °C 26 % 1012,9 hPa 0,0 l/m² 5,4 km/h (1 Bft) N±67.5° 355 ° 4,5 °C 25,4 °C
01.09.2026 15:33 25,4 °C 26 % 1012,9 hPa 0,0 l/m² 5,4 km/h (1 Bft) N±67.5° 355 ° 4,5 °C 25,4 °C
01.09.2026 15:31 25,4 °C 26 % 1012,9 hPa 0,0 l/m² 5,7 km/h (1 Bft) N±67.5° 10 ° 4,5 °C 25,4 °C
01.09.2026 15:29 25,4 °C 25 % 1012,9 hPa 0,0 l/m² 5,4 km/h (1 Bft) N-NW±67.5° 330 ° 3,9 °C 25,4 °C
01.09.2026 15:27 25,4 °C 25 % 1012,9 hPa 0,0 l/m² 5,4 km/h (1 Bft) N-NW±67.5° 330 ° 3,9 °C 25,4 °C
01.09.2026 15:25 25,6 °C 24 % 1012,9 hPa 0,0 l/m² 5,6 km/h (1 Bft) NW±22.5° 320 ° 3,5 °C 25,6 °C
01.09.2026 15:23 25,7 °C 23 % 1012,8 hPa 0,0 l/m² 6,5 km/h (2 Bft) NW 315 ° 3,0 °C 25,7 °C
01.09.2026 15:21 25,7 °C 23 % 1012,8 hPa 0,0 l/m² 1,2 km/h (1 Bft) W±22.5° 260 ° 3,0 °C 25,7 °C
01.09.2026 15:19 25,9 °C 24 % 1012,8 hPa 0,0 l/m² 1,2 km/h (1 Bft) W±22.5° 260 ° 3,8 °C 25,9 °C
01.09.2026 15:17 26,0 °C 23 % 1012,8 hPa 0,0 l/m² 5,6 km/h (1 Bft) S-SO±22.5° 165 ° 3,3 °C 26,0 °C
01.09.2026 15:15 26,0 °C 23 % 1012,8 hPa 0,0 l/m² 5,9 km/h (2 Bft) SO±67.5° 125 ° 3,3 °C 26,0 °C
01.09.2026 15:13 26,0 °C 26 % 1012,8 hPa 0,0 l/m² 5,9 km/h (2 Bft) SO±67.5° 125 ° 5,0 °C 26,0 °C
_ Min-Zeit 06:08 15:15 00:01 - 00:01 - - 15:21 06:08
Minimum _ 15,2 °C 23 % 1011,1 hPa - 0,0 km/h (0 Bft) - - 3,0 °C 15,2 °C
_ Max-Zeit 15:13 06:21 08:41 00:01 14:05 - - 00:42 15:13
Maximum _ 26,0 °C 82 % 1014,2 hPa 0,0 l/m² 15,1 km/h
O-SO (3 Bft)
- - 13,8 °C 26,0 °C
Durchschnitt _ 19,1 °C 64 % 1012,9 hPa #0,0 l/m² 2,6 km/h (1 Bft) SO - 10,9 °C 18,9 °C